Location: Dąbrówka
(52.2799°N, 15.8070°E)
Time: 14:29:48
(UTC+01:00)

ISS - Pass Details

Date: 27 January 2019
Orbit: 403 x 411 km, 51.6° (Epoch: 23 February)

Event Time Altitude Azimuth Distance (km) Brightness Sun altitude
Rises 19:56:18 0° 266° (W) 2,339 1.1 -30.7°
Reaches altitude 10° 19:58:23 10° 266° (W) 1,480 -0.2 -31.0°
Enters shadow 19:58:38 12° 266° (W) 1,382 -0.3 -31.0°
